User: anonymous
Location: Unspecified
(0.0000°N, 0.0000°E)
Time: 19:05:26
(UTC+02:00)
Language:

SJ-6B - Orbit

View from above orbital plane
View from above orbital plane
View from above satellite
View from above satellite

Ground track
Ground track

The orbit data is extracted from the following two-line orbital elements,

1 28415U 04035C   14192.12446156  .00002185  00000-0  16453-3 0  2382
2 28415 097.7964 196.9390 0058023 147.3926 213.0903 15.02268409537348
Epoch (UTC): 11 July 2014 02:59:13
Eccentricity: 0.0058023
inclination: 97.7964°
perigee height: 519 km
apogee height: 600 km
right ascension of ascending node: 196.9390°
argument of perigee: 147.3926°
revolutions per day: 15.02268409
mean anomaly at epoch: 213.0903°
orbit number at epoch: 53734

The dashed part of the orbit path shows where the satellite is in the earth's shadow,  

DLR